STARLINK-36795

Last updated on Sun Mar 15 2026 00:02:06 GMT+0000 (Coordinated Universal Time)

1 67809U 26032N 26073.50680074 .00235866 00000+0 15355-2 0 9991 2 67809 97.2840 260.2596 0001704 32.2236 327.9133 15.75241557 5546
UTC large
Height (km)
Speed (km/s)
/
Latitude / Longitude
Inclination (degrees)
Orbital Period (minutes)
Azimuth
Elevation
Range (km)
Doppler Factor

Next 0 passes for location: London (51.5072 / 0.1276)

Sorry there are no passes over London.